RH
39 34 30 27 24 21 19 18 17 17 16 16 15 15 15 14 13 13 12 12 11 11 10 9 9 9 8 8 8 8 8 8 8 8 8 8 8 8 8 8 8 9 9 9 9 9 9 9 9 9 9 9 9 9 9 9 8 8 8 9 10 11 12 13 14 16 18 19 19 20 19 19 18 17 17 16 15 14 14 14 14 14 15 15 16
21 19 18 18 17 17 17 16 16 15 15 15 14 13 13 12 12 11 10 10 10 9 9 9 8 8 8 7 7 7 7 7 7 7 7 7 7 7 7 7 7 7 8 8 8 8 8 8 8 8 8 8 8 8 8 8 7 7 6 7 7 7 7 8 9 10 12 14 15 16 16 17 17 17 17 16 15 15 14 14 14 14 14 15 15
17 17 17 17 17 16 16 15 14 14 14 13 12 12 11 11 10 10 10 9 9 9 8 8 8 8 7 7 7 7 6 6 6 6 7 7 7 7 6 6 6 6 6 7 7 7 7 7 7 7 7 7 7 7 8 7 7 6 6 6 6 6 6 6 6 7 7 8 9 10 11 11 12 14 14 14 14 14 14 13 14 14 14 15 15
16 16 15 15 15 14 14 13 13 13 12 12 12 11 11 11 11 10 10 9 9 9 8 8 8 8 7 7 6 6 6 6 6 6 6 6 6 6 6 6 6 6 6 6 6 6 6 6 6 6 6 6 6 7 7 6 6 6 6 6 6 6 6 5 6 6 6 7 7 7 7 7 8 8 9 9 10 10 10 11 11 12 13 14 15
14 14 14 13 13 13 13 13 13 13 12 12 12 12 12 11 10 10 9 9 8 8 8 8 7 7 6 6 6 6 6 6 6 5 5 5 5 5 5 5 5 5 5 5 5 5 5 5 5 5 5 5 6 6 6 5 5 5 5 5 5 5 5 5 5 5 5 6 6 6 6 6 6 7 6 6 7 6 6 7 7 8 9 10 11
13 13 13 13 14 14 14 14 14 14 13 13 12 12 11 10 9 9 8 8 8 8 7 7 6 6 6 6 6 6 6 5 5 5 5 4 5 4 4 5 5 5 5 5 5 5 5 5 5 5 5 5 5 5 5 5 5 5 5 5 5 5 5 5 5 5 5 5 5 6 6 6 6 6 6 6 6 6 5 5 5 6 6 6 7
15 16 16 16 16 15 15 15 14 13 12 11 11 10 9 9 8 8 8 8 8 7 7 6 6 6 6 6 6 5 5 5 4 4 4 4 4 4 4 4 4 4 4 4 4 4 4 5 4 5 5 4 5 5 4 5 4 4 4 4 4 4 4 5 4 4 5 5 5 5 5 6 5 5 6 5 5 5 5 5 5 5 5 5 5
17 17 17 16 16 15 14 13 12 11 10 9 9 9 9 9 9 9 9 8 8 7 7 6 6 6 6 6 5 5 5 5 5 4 4 4 4 4 4 4 4 4 4 4 4 4 4 4 4 4 4 4 5 4 4 4 4 4 4 4 4 4 4 4 4 4 4 4 5 5 5 5 5 5 5 5 5 5 4 5 5 4 5 5 5
16 16 15 14 13 12 11 11 10 10 10 10 10 9 10 10 9 9 8 7 7 6 6 6 6 6 6 5 5 5 5 4 4 4 4 4 4 3 3 4 4 4 4 4 4 4 4 4 4 4 4 4 4 4 4 4 4 4 4 4 4 4 4 4 4 4 4 4 4 4 4 5 4 4 5 4 4 4 4 4 4 4 5 5 5
13 12 12 11 11 10 10 11 10 10 10 10 10 10 10 10 9 8 7 7 7 7 6 6 6 5 5 5 5 4 4 4 3 3 3 3 3 3 3 3 3 3 3 3 3 4 3 4 4 4 4 4 4 4 4 4 4 3 3 3 3 4 3 4 4 4 4 4 4 4 4 4 4 4 4 4 4 4 4 4 4 4 4 4 5
11 11 11 10 10 10 10 11 11 11 10 10 10 10 9 9 8 7 7 7 7 7 6 6 5 5 4 4 4 4 3 4 3 3 3 3 3 3 2 3 3 3 3 3 3 3 3 3 3 3 3 4 4 4 4 4 4 3 3 3 3 4 3 3 4 4 4 4 4 4 4 4 4 4 4 4 4 4 4 3 4 4 4 4 4
10 10 10 10 10 11 11 11 11 11 11 10 10 9 8 8 8 7 7 7 7 6 5 5 4 4 4 4 4 4 4 4 4 3 3 3 3 3 3 3 3 3 3 3 3 3 3 3 3 3 3 3 3 3 3 3 3 3 3 3 3 3 3 3 4 4 4 4 4 4 4 4 4 4 3 3 3 3 3 3 4 4 4 4 4
11 11 11 11 11 12 12 12 11 11 10 9 8 8 7 7 7 6 6 5 5 5 4 4 4 4 4 4 4 4 4 4 4 4 4 3 3 3 3 3 3 3 3 3 3 3 3 3 3 2 3 3 2 2 2 2 3 3 3 3 3 3 3 3 3 3 3 4 4 4 4 4 4 4 3 3 3 3 3 3 4 4 4 4 4
12 12 12 12 11 11 11 10 10 9 8 7 7 6 6 6 5 5 5 5 5 5 5 5 5 4 5 4 4 4 4 4 4 4 4 4 3 3 3 3 3 3 3 3 3 3 3 3 3 3 2 3 2 2 2 2 2 2 2 3 3 3 3 3 3 3 3 3 3 3 3 3 3 3 3 3 3 3 3 3 4 4 4 3 4
11 11 11 10 9 9 8 8 7 7 6 6 6 6 5 5 5 5 5 5 5 5 5 5 5 5 4 4 4 4 4 4 4 4 4 4 3 3 3 3 3 3 3 4 3 3 3 3 3 3 3 3 2 2 2 2 2 3 2 3 3 3 3 3 3 3 3 3 3 3 3 3 2 3 3 3 3 3 3 3 3 4 4 3 3
9 9 9 8 7 7 6 6 6 6 6 6 6 6 5 5 5 5 5 5 5 5 5 5 5 5 4 4 4 4 4 4 4 4 4 3 3 3 3 3 4 3 3 4 3 3 4 3 3 3 3 3 3 2 3 2 3 3 3 3 3 3 3 3 3 3 3 3 3 3 2 3 2 2 2 2 3 3 3 4 3 3 4 3 3
8 8 7 7 7 6 6 6 6 6 6 6 6 6 6 5 5 5 5 5 5 5 5 5 5 4 4 4 4 4 4 4 4 4 3 3 3 3 3 3 3 3 3 4 3 3 3 3 3 3 3 3 3 3 3 3 3 3 3 3 4 4 4 4 3 3 3 3 3 3 2 2 2 2 2 2 3 3 3 3 3 3 3 3 3
7 7 7 6 6 6 6 6 6 6 6 6 6 6 5 5 5 5 5 5 5 5 5 5 5 4 4 4 3 4 4 4 4 3 3 3 3 3 3 3 3 3 3 3 3 3 3 3 3 3 3 3 3 3 3 4 4 4 4 4 4 4 4 4 3 3 3 3 3 3 2 3 2 2 3 2 2 3 3 3 3 3 3 3 3
7 7 7 6 6 6 6 6 6 6 6 6 6 6 5 6 5 5 5 5 5 5 5 5 5 4 4 4 3 4 4 4 4 3 3 3 3 3 3 3 3 3 3 3 3 3 3 3 3 3 3 3 3 3 3 4 4 4 4 4 5 4 4 4 3 3 3 3 3 3 2 2 2 2 3 3 2 3 3 3 3 3 3 3 3
7 7 7 6 6 6 6 6 6 6 6 6 6 5 5 5 5 5 6 5 5 5 5 5 5 4 4 4 3 4 4 3 3 3 3 3 3 3 3 3 3 3 3 3 3 3 3 3 3 3 3 3 4 4 4 4 4 4 4 4 4 4 4 4 3 4 4 3 3 3 2 2 3 3 3 3 3 3 3 3 3 3 3 3 3
6 6 6 6 6 6 5 5 5 5 5 5 5 5 5 5 5 5 5 5 5 5 4 4 4 4 4 4 3 4 4 3 3 3 3 3 3 3 3 3 3 3 3 3 3 3 3 3 3 3 3 3 4 4 4 4 4 4 4 4 4 4 3 4 4 3 3 3 3 3 3 3 3 3 3 3 3 3 3 3 3 3 3 3 4
6 6 6 5 6 5 5 5 5 5 5 5 5 5 4 5 5 4 5 5 5 5 4 4 4 4 4 4 4 4 4 3 3 3 3 3 3 3 3 3 3 3 3 3 3 3 3 3 3 3 3 3 4 4 4 4 4 4 4 4 4 4 3 4 4 3 3 3 3 3 3 3 3 3 3 3 3 3 3 3 3 3 3 4 4
6 6 6 6 6 5 5 5 5 4 5 4 4 4 4 4 4 4 5 5 5 5 4 4 4 4 4 4 4 4 4 3 3 3 3 3 3 3 3 3 3 3 3 3 3 3 3 3 3 3 4 4 4 4 4 4 4 4 4 4 3 4 4 4 4 4 4 3 3 3 3 3 3 3 3 3 3 3 3 3 3 4 4 4 4
6 6 5 5 5 5 5 5 5 4 4 4 4 4 4 5 5 5 5 5 5 5 4 4 4 4 4 4 4 4 4 3 3 3 3 3 3 3 4 3 3 3 3 3 3 3 3 3 3 3 4 4 4 4 4 5 4 4 4 4 4 4 4 4 4 4 4 3 3 3 3 3 3 3 3 3 3 3 3 4 4 4 4 4 4
5 5 5 5 5 5 5 5 5 4 4 4 4 4 4 5 5 5 5 5 4 4 4 4 4 4 4 4 4 4 4 4 3 3 3 3 3 3 4 4 3 3 3 3 3 3 3 3 3 4 4 4 4 4 4 4 4 4 4 4 4 4 4 4 4 4 3 4 3 3 3 3 3 3 3 3 3 3 4 4 4 5 4 4 4
5 5 5 5 5 5 5 5 5 5 5 4 4 4 4 5 5 5 5 5 4 4 4 4 4 4 4 4 4 4 4 3 4 4 3 3 4 3 4 4 3 3 3 3 3 3 3 3 3 4 4 4 4 4 4 4 4 4 4 4 4 4 4 4 4 4 3 4 3 3 3 3 3 3 3 3 3 4 4 4 4 4 4 4 4
5 5 5 5 5 5 5 5 5 5 5 4 4 4 4 4 4 5 5 5 4 4 3 4 4 4 4 4 4 4 4 4 3 4 4 4 4 3 3 4 3 3 3 3 3 3 3 3 4 4 4 4 4 4 4 4 4 4 4 4 4 4 4 4 4 4 4 3 3 3 3 3 3 3 3 3 4 4 4 4 4 4 4 4 4
5 5 5 5 5 5 5 5 5 5 4 4 4 4 3 4 4 4 4 4 4 4 3 3 4 4 4 4 4 3 4 4 4 4 4 4 4 3 4 3 3 3 3 3 3 3 3 4 4 4 4 4 4 5 4 4 4 4 4 5 4 4 4 4 4 4 4 4 3 3 3 3 3 4 3 3 4 4 4 4 4 4 4 4 4
5 5 5 4 4 4 4 4 4 4 4 4 4 3 3 4 4 4 4 4 4 4 3 3 3 3 3 4 4 4 4 4 4 4 4 4 4 3 4 4 4 4 4 3 4 4 4 4 4 4 4 4 4 5 5 5 5 5 5 5 5 5 5 4 4 4 3 4 3 3 3 3 3 3 4 4 4 4 4 4 4 4 4 4 4
4 4 4 4 4 4 4 4 4 4 4 4 4 3 3 3 4 4 4 4 4 4 4 3 3 3 3 4 4 4 4 4 4 4 3 4 4 4 4 4 4 4 3 4 4 4 4 4 4 4 4 4 5 5 5 5 5 5 5 5 5 5 5 4 4 4 4 3 4 3 3 4 3 4 4 4 4 4 4 4 4 4 4 4 4
4 4 4 4 4 4 4 4 4 4 4 3 3 4 3 3 3 4 4 5 5 4 4 3 3 4 4 4 4 4 4 4 4 4 4 4 4 4 4 4 4 4 4 4 4 4 4 4 4 4 5 5 5 5 5 5 5 5 5 6 5 5 5 4 4 4 4 3 4 4 3 4 4 4 4 4 4 4 4 5 4 4 5 5 4
4 4 4 4 4 4 4 4 4 4 4 4 3 3 4 3 3 3 4 5 5 5 4 4 3 4 4 4 4 4 4 4 4 4 4 4 4 4 4 4 4 4 4 4 4 4 4 4 4 4 5 5 6 6 6 5 6 6 5 5 5 5 5 5 4 4 4 4 4 4 4 4 4 5 5 5 5 5 5 5 5 5 5 5 5
4 4 5 4 4 4 4 4 4 4 4 4 4 4 4 4 3 3 3 4 5 5 5 4 3 3 4 4 4 4 4 4 4 4 3 4 4 4 4 4 4 4 4 4 4 4 4 4 4 4 5 6 6 6 6 5 6 6 5 5 5 5 5 5 4 4 4 4 4 4 5 5 5 5 6 5 5 6 5 6 6 6 6 6 5
4 4 4 4 4 4 4 4 5 5 4 5 4 4 4 4 4 4 3 3 4 5 5 5 4 3 4 4 4 4 4 4 4 4 4 4 4 4 4 4 4 4 4 4 4 4 4 4 4 5 5 6 6 6 6 6 6 6 6 5 5 5 5 4 5 4 4 4 5 5 5 6 6 6 6 6 6 6 6 6 6 6 6 6 6
4 4 4 4 4 4 4 4 4 4 4 4 4 4 4 4 4 4 4 3 3 4 4 5 5 4 3 4 4 4 4 4 4 4 4 4 4 4 4 4 4 4 4 4 4 4 4 4 5 5 5 6 6 6 6 6 6 6 6 6 5 5 5 4 4 5 4 5 5 5 6 6 7 7 7 7 7 7 7 7 7 7 7 7 6
4 4 4 4 4 4 4 4 4 4 4 4 4 4 4 4 4 4 4 4 4 4 4 5 5 5 4 4 4 4 4 4 4 4 4 4 4 4 4 4 4 4 4 4 4 4 5 5 5 5 6 6 6 6 5 6 6 6 6 6 5 5 5 5 4 5 5 5 5 6 6 7 7 7 7 7 7 7 7 7 7 7 7 7 7
4 4 4 4 4 4 4 4 4 4 4 4 4 4 4 4 4 4 4 4 4 4 4 4 4 5 4 4 4 4 4 4 4 4 4 4 4 4 4 4 4 4 4 5 5 5 5 5 5 5 6 6 6 6 6 6 6 6 6 6 6 5 5 5 5 5 5 5 6 6 7 7 7 7 8 8 7 7 7 7 7 7 7 8 7
4 4 4 5 5 4 4 4 4 4 4 4 4 4 4 4 4 4 4 4 4 4 5 4 4 4 4 4 4 4 4 4 4 4 5 4 4 4 5 4 4 4 4 5 5 5 5 5 5 5 6 6 6 6 6 6 6 6 6 6 6 6 6 5 6 6 6 6 6 7 7 8 8 8 8 8 8 8 8 8 8 8 8 8 8
4 4 4 5 4 4 5 5 4 4 4 4 4 4 4 4 4 4 4 4 4 4 4 5 5 5 4 4 4 4 4 4 4 4 4 5 4 5 5 4 4 5 4 5 5 5 5 5 5 5 6 6 6 6 6 6 6 6 6 6 6 6 6 6 6 7 7 7 7 7 8 8 9 9 9 8 8 9 9 9 9 9 9 8 8
5 4 4 4 4 4 4 5 4 4 5 4 4 4 4 4 4 4 4 4 4 4 5 5 5 5 5 4 4 4 4 4 4 4 4 5 5 5 5 5 5 5 5 5 5 5 5 5 5 6 6 7 7 6 6 6 7 7 6 6 6 6 6 6 6 7 7 7 8 8 9 9 10 9 9 9 9 9 10 10 9 9 9 9 9
4 5 5 4 5 4 4 4 4 4 4 4 4 4 4 4 4 4 4 4 4 4 4 5 4 5 5 5 4 4 4 4 4 4 4 5 5 5 5 5 5 5 5 5 5 5 5 5 5 6 6 7 7 7 6 7 7 7 7 7 7 6 6 6 6 7 7 8 9 9 9 9 10 10 9 10 10 10 10 10 10 9 10 10 9
5 5 5 4 5 5 4 4 4 4 4 5 4 4 4 4 4 4 4 4 4 4 4 5 5 5 5 5 5 5 4 4 4 4 4 4 5 5 5 5 5 5 5 5 5 5 5 5 5 6 7 7 7 7 7 7 7 8 8 7 7 7 7 7 8 9 9 9 10 10 10 10 10 10 9 9 9 10 10 10 10 10 10 10 10
5 5 5 5 5 5 5 5 5 4 5 5 4 4 4 4 4 5 4 4 4 4 4 4 5 4 5 5 5 5 5 4 4 4 4 4 5 5 5 5 5 5 5 5 6 6 5 6 6 6 7 7 7 7 7 7 7 8 8 8 7 7 7 8 9 10 10 11 11 10 10 10 10 9 9 9 9 10 10 11 11 11 11 11 11
5 5 5 5 5 5 5 5 5 5 5 5 5 5 5 4 4 5 5 4 4 4 4 4 4 4 5 5 5 5 5 5 4 4 4 4 5 5 5 5 5 5 5 5 6 6 6 6 6 6 7 8 8 7 7 7 7 8 8 8 8 8 8 8 9 10 10 11 12 11 11 11 10 10 10 10 10 11 11 11 12 11 11 11 11
5 5 5 5 5 5 5 5 5 5 5 5 5 5 5 5 5 4 4 4 4 4 4 4 4 4 5 5 5 5 5 5 5 4 4 4 5 5 5 5 5 5 6 5 6 6 6 6 6 6 7 8 8 7 7 7 7 8 8 8 8 9 9 9 10 11 11 11 12 12 11 11 11 10 10 10 10 11 11 11 11 12 12 12 12
5 5 5 5 5 5 5 5 5 5 5 5 5 5 5 5 5 5 4 5 4 4 4 4 4 4 5 4 5 5 5 5 5 5 4 4 5 5 5 5 5 5 6 6 6 6 6 6 6 6 7 8 8 8 8 8 8 8 8 8 8 9 10 10 11 11 12 12 13 12 12 11 11 11 11 11 11 11 11 11 11 12 12 13 13
5 5 5 5 5 5 5 5 4 5 5 5 5 5 5 5 5 5 5 5 5 4 4 4 4 4 4 4 5 5 6 6 6 5 5 4 4 5 5 5 5 5 6 6 6 6 6 6 6 6 7 8 8 8 8 8 8 8 8 8 9 9 10 11 12 12 13 13 13 13 13 12 12 12 12 11 11 11 11 12 12 13 13 14 15
5 5 5 5 5 5 5 5 5 5 5 5 5 5 5 5 5 5 5 5 5 5 5 5 4 4 4 4 5 5 6 6 6 5 5 5 4 5 5 5 5 6 6 6 6 6 6 6 6 7 7 8 8 9 8 8 8 9 9 8 8 9 10 11 13 13 14 14 14 14 14 13 13 13 12 12 12 11 11 13 14 14 15 16 17
5 5 5 5 5 5 5 5 5 5 5 5 5 5 5 5 5 5 5 5 5 5 5 5 5 4 4 4 5 5 5 6 6 6 6 5 5 5 5 5 5 5 5 6 6 6 6 7 7 6 7 7 8 9 9 8 8 9 9 9 9 9 9 11 13 14 14 15 15 15 15 14 14 14 13 12 12 12 12 13 14 15 16 18 19
5 5 5 5 5 5 5 5 5 5 5 5 5 5 5 5 5 5 5 5 5 5 5 5 5 5 4 4 5 5 5 6 6 6 6 5 5 5 5 5 5 5 5 6 6 6 6 7 7 6 7 8 8 9 9 9 8 9 9 9 9 9 9 11 13 14 15 16 16 15 16 15 15 14 14 13 13 13 13 13 15 17 18 19 20
5 5 5 5 5 5 5 5 5 5 5 5 5 5 5 5 5 5 5 5 5 5 5 5 5 5 4 4 4 5 5 6 6 6 6 6 5 5 5 5 5 6 5 5 6 6 6 7 7 7 7 7 8 8 9 9 9 9 9 9 9 9 9 10 12 14 16 17 17 16 16 16 16 15 15 14 13 13 13 14 15 17 19 21 22
Wind_Speed
128 128 127 126 125 124 124 123 123 122 122 121 120 119 119 118 116 115 114 113 111 110 109 107 106 105 105 105 104 104 104 104 106 107 109 111 113 115 117 119 122 123 126 128 131 133 135 136 138 139 141 142 143 143 143 143 142 139 137 136 136 137 138 139 139 140 143 147 148 149 149 150 151 152 153 153 151 149 148 146 145 144 144 144 145
124 123 123 122 122 121 121 121 120 120 119 118 117 116 115 113 112 110 109 108 107 106 106 105 104 103 103 102 101 101 101 102 102 104 105 107 109 112 114 116 118 119 121 123 126 129 131 132 133 134 136 137 138 139 140 140 139 136 133 132 131 131 132 132 133 135 139 143 146 147 148 148 148 150 152 153 152 150 148 147 145 144 144 144 146
121 121 120 120 120 119 119 118 117 116 115 114 113 112 111 110 109 108 107 106 106 105 104 104 103 103 102 101 100 99 99 100 100 101 102 104 106 108 110 112 114 115 117 119 121 124 126 127 127 129 131 132 133 134 135 136 135 133 130 129 128 127 126 126 126 127 130 134 138 140 142 142 144 146 148 150 150 149 147 145 143 142 143 144 145
118 118 117 117 116 115 115 114 113 112 111 110 110 109 109 108 108 107 107 106 105 104 103 102 101 100 100 99 98 97 97 97 98 99 100 101 102 104 106 108 109 111 113 114 116 119 121 122 123 124 126 127 128 129 131 131 131 129 127 126 125 124 123 122 120 120 122 126 129 131 132 133 135 138 141 143 144 144 143 141 140 140 140 142 144
114 113 113 112 112 111 111 110 110 110 109 109 109 109 108 108 107 106 105 104 103 102 101 100 99 98 97 96 95 95 95 95 96 96 97 98 99 100 101 103 105 107 108 109 111 114 116 117 118 120 121 122 123 125 126 126 126 125 124 123 122 121 120 118 117 116 117 119 121 123 124 124 126 129 131 133 134 134 135 134 133 134 136 138 141
110 110 110 109 109 109 109 109 109 109 109 109 108 108 107 106 105 104 103 102 101 101 100 99 97 96 95 95 95 95 94 94 94 94 95 95 96 96 97 99 100 102 104 105 107 109 111 113 114 115 116 117 119 120 121 121 121 121 120 119 119 118 117 116 114 113 113 114 115 116 117 118 119 122 123 124 124 124 124 124 124 126 128 130 133
109 109 109 108 108 108 108 109 109 108 108 107 106 106 105 104 103 102 101 100 100 99 99 98 97 96 96 95 95 95 94 93 93 92 92 93 93 93 94 95 96 98 100 101 103 104 106 108 109 111 111 112 114 116 117 117 116 116 116 115 115 114 114 113 113 112 111 111 112 112 112 113 114 116 117 117 117 116 116 116 117 118 120 122 125
108 108 108 108 108 108 108 107 107 107 106 105 104 103 103 102 102 101 101 100 100 99 98 98 97 96 95 95 94 93 92 92 91 91 91 91 91 91 91 92 93 94 96 97 99 100 102 104 105 106 107 108 110 111 112 112 112 111 111 111 110 110 110 110 110 109 109 109 109 109 109 110 111 112 113 112 111 110 110 110 110 111 113 115 118
107 107 107 107 107 106 106 106 106 105 104 103 103 102 101 101 101 101 101 100 99 98 97 96 95 94 93 93 92 91 90 89 89 89 89 89 89 89 89 89 90 91 92 94 95 96 98 100 101 102 103 104 105 107 108 108 108 107 107 106 106 105 105 106 105 105 105 106 106 106 107 108 109 110 110 108 107 106 105 104 104 105 107 110 112
106 106 106 105 105 105 104 104 104 103 102 101 101 101 101 101 101 100 99 98 97 96 95 94 94 92 91 90 90 89 89 88 88 88 88 88 87 87 87 86 86 87 88 90 91 93 94 96 97 98 99 100 101 103 103 104 104 103 102 101 101 101 101 101 102 102 102 102 102 103 104 105 107 108 106 104 103 102 100 99 99 101 103 105 108
104 104 104 104 103 103 102 102 102 101 101 100 100 100 100 100 99 98 96 95 95 94 94 94 93 91 90 88 88 88 88 87 87 86 86 86 85 84 83 83 83 83 84 86 87 89 90 92 93 94 95 96 97 98 99 99 99 98 97 96 96 97 97 97 98 98 98 99 99 101 102 103 105 105 103 100 99 98 96 94 95 97 99 102 105
103 103 102 102 101 100 100 100 100 101 101 100 100 100 99 98 97 95 94 94 94 94 94 93 91 90 89 87 86 85 85 85 85 84 84 83 82 81 80 79 79 80 81 82 84 85 87 88 90 91 92 93 93 94 94 94 94 93 92 92 92 93 93 93 94 94 94 95 96 98 99 101 102 101 98 96 96 93 90 89 91 94 97 99 102
102 101 101 101 100 100 100 100 100 100 100 99 98 97 96 95 94 94 93 93 93 93 92 91 90 88 86 84 83 83 82 82 81 81 81 81 80 78 77 76 76 77 78 79 80 82 84 85 87 87 88 89 89 89 89 89 88 88 88 88 88 89 89 90 90 91 92 92 93 95 97 98 98 96 94 92 90 88 85 85 88 92 95 96 98
100 100 100 100 99 99 99 99 98 98 97 96 95 95 94 94 94 93 92 92 92 91 90 89 87 85 84 82 80 80 80 80 79 80 80 79 78 76 74 74 74 74 75 76 77 79 81 82 83 84 84 85 84 84 84 84 84 83 83 84 84 85 86 86 87 88 89 90 90 92 94 95 94 92 90 88 86 83 81 83 86 90 92 93 94
98 98 98 97 97 96 95 95 95 95 94 94 94 94 93 93 92 91 90 89 88 87 86 85 83 83 82 80 79 78 78 78 77 78 78 77 75 73 72 72 72 72 72 73 74 77 79 80 81 81 81 81 81 80 79 79 79 79 79 80 81 82 83 83 84 85 85 86 87 89 91 92 90 88 86 83 81 79 79 81 86 89 89 89 90
95 95 95 94 94 93 93 93 93 93 93 92 92 92 92 90 89 87 86 86 85 84 83 81 81 80 80 79 77 76 76 76 75 75 75 75 72 70 70 70 70 70 70 71 72 74 76 78 79 79 78 78 77 77 76 75 75 75 75 76 77 79 80 81 82 81 81 82 83 86 88 88 85 83 81 78 77 76 78 81 85 86 86 86 86
93 93 93 92 92 92 91 91 91 91 91 90 90 89 88 87 86 84 83 83 83 82 81 80 80 79 78 77 75 73 72 72 72 72 72 72 69 67 67 68 68 68 68 69 70 72 73 75 76 76 75 74 74 73 72 72 71 72 72 73 75 76 78 79 79 78 77 78 80 83 85 83 80 78 77 75 74 75 78 82 84 84 83 83 84
91 91 91 90 90 90 89 89 88 87 87 87 86 86 85 84 83 82 81 80 80 80 79 77 78 77 75 73 71 70 69 69 69 69 69 69 67 65 65 65 65 65 66 67 68 69 70 72 73 74 72 71 70 70 69 68 68 69 70 71 73 74 76 77 76 74 74 74 77 81 81 78 75 74 74 73 73 75 79 81 81 80 81 81 81
89 89 89 88 88 87 86 85 85 84 84 84 84 83 82 81 80 79 79 78 77 77 76 74 75 76 74 71 68 67 66 67 67 67 67 66 64 62 62 63 63 63 63 65 66 66 67 68 70 70 70 68 67 67 66 65 66 68 69 70 71 73 75 74 72 71 71 73 76 78 77 73 71 71 71 71 72 75 78 78 77 78 79 80 80
87 87 87 86 86 85 84 83 82 82 81 81 81 81 79 78 77 76 75 75 75 74 73 72 72 73 72 69 66 65 64 65 65 65 64 64 61 59 59 60 61 61 61 62 63 64 64 65 66 67 66 65 64 64 63 63 64 67 68 69 71 73 72 70 68 68 70 72 74 74 72 69 68 69 70 70 72 75 75 75 76 78 78 78 79
84 84 84 84 83 83 82 81 80 79 79 78 78 77 76 74 72 71 71 72 72 72 70 70 70 70 69 66 64 63 63 63 63 63 62 61 58 57 57 58 59 59 59 60 61 62 62 62 63 63 63 61 61 61 61 62 63 66 68 69 70 70 67 65 65 66 69 70 71 70 68 67 67 68 70 70 72 74 74 74 76 76 76 76 77
80 80 80 80 80 80 80 79 77 76 76 75 74 74 73 71 69 67 67 69 69 69 68 67 67 67 66 63 61 61 61 60 60 60 60 58 56 54 55 56 57 57 58 59 59 59 60 60 60 60 59 58 58 58 59 61 62 64 67 68 67 65 63 62 62 64 67 68 68 67 66 65 67 69 70 70 71 72 72 73 73 73 73 73 74
77 77 77 77 77 77 76 76 75 74 73 72 71 70 69 68 66 64 63 65 66 66 65 64 63 63 62 61 59 59 59 57 57 57 57 56 54 52 52 54 55 55 57 58 57 57 57 57 57 57 56 56 55 56 58 60 61 63 66 66 64 61 59 59 60 63 65 66 65 64 64 65 67 69 70 70 70 70 70 70 70 71 72 73 75
74 74 75 75 74 74 74 73 72 71 70 69 68 66 65 64 63 61 60 61 62 63 63 61 60 59 58 58 57 56 55 55 54 54 55 54 52 50 51 53 54 54 56 56 55 55 55 54 54 54 54 54 54 55 58 59 61 62 63 63 61 58 56 57 60 63 64 64 64 64 64 65 68 70 69 68 68 67 67 68 70 71 72 74 76
73 72 72 72 72 71 71 70 70 69 67 66 65 64 62 61 60 59 58 59 59 60 60 58 57 56 54 54 55 54 53 53 53 52 52 52 51 49 49 51 52 53 54 55 54 53 52 52 51 52 52 53 54 56 58 59 60 61 61 60 58 55 55 58 61 62 62 63 63 64 65 66 68 68 66 64 64 65 66 68 70 71 72 74 75
70 70 69 69 69 68 67 68 67 67 66 64 63 61 59 58 57 56 56 57 58 58 58 56 54 53 51 51 53 52 50 50 51 50 50 49 48 48 49 50 51 52 52 53 52 51 50 49 50 50 52 53 54 56 57 58 58 58 57 56 55 53 55 58 60 61 62 63 63 63 65 65 65 64 62 62 63 65 67 69 70 71 72 72 73
68 67 67 67 66 66 65 65 65 65 64 64 62 59 56 54 53 52 53 55 57 57 56 53 51 51 49 49 51 50 48 48 48 47 47 48 47 47 48 48 49 50 49 49 49 48 47 48 49 50 52 53 54 55 55 55 55 55 54 53 53 53 56 58 59 60 61 62 62 63 63 62 61 60 60 61 63 66 67 68 68 68 69 70 71
66 66 65 65 64 63 63 62 62 62 62 62 60 58 55 52 51 50 50 52 55 57 55 51 48 48 47 47 49 48 46 46 46 45 45 46 45 45 45 45 46 47 46 46 46 45 45 46 48 50 51 52 52 53 53 53 52 52 51 51 51 53 55 56 58 59 60 60 60 61 60 59 59 59 60 62 64 65 66 66 65 65 67 68 70
64 63 63 62 61 61 60 60 59 59 59 60 59 57 53 50 49 49 49 49 52 54 53 49 46 45 45 44 45 46 44 44 44 43 43 43 43 42 42 42 43 44 44 44 43 43 43 45 47 48 49 49 50 51 51 50 49 49 48 48 49 51 53 55 57 58 58 59 59 58 58 58 58 58 59 61 63 64 64 63 62 64 66 67 68
62 61 61 60 59 58 58 58 57 57 57 57 58 57 54 48 44 44 47 50 51 52 51 47 44 44 44 43 42 42 42 42 42 42 41 41 41 40 40 40 42 43 43 42 42 42 43 45 46 46 47 48 48 49 49 48 47 47 47 47 48 50 53 54 55 56 56 56 56 56 56 56 56 57 58 60 61 61 61 60 61 63 65 66 66
60 60 59 59 58 56 56 56 56 56 56 55 55 56 56 52 45 39 40 45 51 53 50 45 42 42 44 43 40 38 40 41 40 40 39 39 39 39 38 39 40 41 41 41 41 41 43 44 45 45 45 46 46 47 47 47 47 46 46 47 48 51 53 53 54 54 54 54 54 54 54 54 55 56 56 57 58 58 58 58 60 62 63 64 64
58 57 58 57 56 55 54 54 54 54 55 55 54 53 54 54 50 42 35 36 45 52 52 45 40 40 42 43 40 36 37 39 39 37 37 37 37 38 37 38 39 40 40 39 40 41 42 44 44 43 43 44 45 46 47 47 46 46 46 47 49 51 52 52 52 52 52 52 52 52 52 52 53 53 54 54 54 55 56 57 59 60 61 62 62
56 55 55 56 55 54 53 53 53 53 53 53 53 52 51 51 51 48 40 33 35 45 51 48 42 38 38 41 41 37 34 36 37 36 35 35 36 36 36 37 38 39 38 38 39 40 41 42 42 42 42 43 44 46 47 46 46 45 46 47 49 50 51 51 51 51 51 51 51 51 51 51 51 51 51 52 53 54 55 57 58 59 59 60 61
54 53 53 54 54 53 52 51 51 51 51 51 51 50 49 48 48 48 46 39 33 36 44 47 45 40 37 37 39 38 35 34 35 35 34 33 34 35 35 36 37 38 37 37 39 40 41 41 41 42 42 43 44 45 46 46 45 44 45 46 48 49 50 49 50 50 50 50 50 50 50 50 50 50 50 51 52 53 55 56 57 58 58 58 59
53 52 51 51 51 50 50 49 49 49 49 49 49 48 47 47 46 45 45 44 38 34 37 42 44 43 39 36 36 37 36 34 34 34 33 32 33 34 35 36 36 36 36 37 38 39 40 40 41 41 42 43 44 45 45 45 44 43 44 45 47 48 48 48 49 49 49 49 50 50 49 49 49 49 49 51 52 54 55 56 57 57 57 57 58
53 52 51 50 50 49 48 47 47 47 47 47 48 47 45 45 45 43 43 43 41 37 35 37 40 42 42 38 35 35 35 34 33 33 32 32 32 33 34 35 35 35 35 36 37 39 40 40 40 41 42 43 44 44 44 44 43 43 43 44 45 46 47 47 48 48 48 49 49 49 49 49 49 49 51 52 54 55 56 56 56 56 56 56 57
53 53 52 51 50 49 48 47 46 45 45 46 46 46 44 43 43 43 42 41 40 38 36 36 37 39 40 39 35 34 34 34 33 32 32 31 32 32 33 34 34 34 34 35 37 38 39 39 40 41 42 43 43 44 44 43 43 43 43 44 45 45 46 46 46 47 48 48 48 48 48 48 49 50 52 53 54 55 55 55 55 55 55 55 56
54 53 52 51 50 49 48 47 46 44 43 43 43 43 43 42 41 41 41 40 40 38 36 35 35 36 38 38 36 33 32 33 33 32 31 31 31 31 32 33 33 33 33 34 36 37 38 39 40 40 41 42 42 43 43 43 43 43 43 44 45 45 45 46 46 46 47 47 47 47 47 48 49 51 52 53 53 54 54 54 54 54 54 55 56
55 53 51 50 49 48 47 47 46 44 43 42 41 41 41 41 40 39 39 39 39 38 36 35 34 34 35 37 36 34 32 32 32 32 31 30 30 30 31 32 32 33 33 34 35 37 38 38 39 40 40 41 41 41 42 42 42 42 43 44 45 46 46 46 46 46 47 47 47 47 47 48 49 51 52 52 53 53 53 54 54 54 54 55 55
55 53 51 50 49 48 46 46 45 45 43 42 41 40 39 39 39 38 38 38 37 37 36 35 34 34 34 34 35 34 32 31 31 31 30 30 30 29 30 30 31 32 32 33 34 36 37 38 38 39 40 40 41 41 41 41 41 41 42 43 44 45 45 46 46 46 46 46 47 47 48 49 50 51 52 52 52 53 53 54 54 54 54 54 55
55 53 51 49 48 46 45 44 44 43 43 42 42 40 39 38 37 37 37 36 36 36 35 35 33 33 33 33 33 33 32 31 30 30 30 29 29 29 29 29 30 31 31 32 34 35 37 37 38 39 39 40 40 40 41 40 40 40 41 42 43 44 44 44 44 44 45 46 47 48 49 51 52 52 53 53 53 53 54 54 54 54 54 54 54
54 52 50 49 47 46 45 43 42 41 41 41 41 40 39 37 36 36 35 35 35 35 34 34 33 32 32 32 32 31 31 30 30 30 29 29 28 28 28 28 29 30 30 31 33 35 36 37 38 38 39 40 40 40 40 40 40 40 40 41 42 43 43 43 43 44 44 46 47 49 50 51 52 53 53 53 53 53 53 53 53 53 53 54 54
54 52 50 48 47 46 44 43 42 41 40 39 39 39 38 37 36 35 34 34 34 33 33 33 33 32 31 31 30 30 30 30 30 29 29 28 28 28 28 28 28 29 29 30 32 34 36 37 37 38 39 39 40 40 40 40 40 39 40 40 41 43 44 44 45 45 46 47 48 49 50 51 52 52 52 52 52 52 53 53 53 53 54 54 54
54 52 51 49 47 45 44 43 42 41 40 39 38 38 37 36 36 35 34 33 33 32 32 32 32 32 31 30 29 29 29 29 29 29 29 28 27 27 27 28 28 28 29 30 31 33 35 36 37 38 38 39 40 40 40 40 39 39 40 40 41 42 43 45 46 47 47 48 49 50 51 51 52 52 52 52 52 53 53 53 54 54 54 53 54
53 52 51 49 47 45 44 42 41 40 40 38 37 37 36 36 35 35 34 33 32 32 31 31 31 31 31 30 29 28 28 28 28 28 28 28 27 27 27 27 27 28 28 29 30 32 34 36 37 38 38 39 39 40 40 40 40 40 40 40 41 42 43 45 46 47 47 48 49 50 50 51 51 52 52 53 53 53 53 54 54 53 53 53 53
53 52 51 49 48 46 44 43 41 40 39 39 37 36 35 35 35 34 34 33 32 31 31 30 29 29 29 29 28 27 26 27 27 28 27 27 27 27 27 27 27 27 27 28 30 32 34 35 36 37 38 39 39 40 40 40 40 40 40 40 41 42 43 44 45 46 47 48 48 49 50 51 51 52 53 53 53 54 54 53 53 53 53 53 53
54 52 51 50 48 47 45 43 42 41 40 39 38 37 35 34 34 33 33 33 32 31 30 30 29 28 27 27 27 26 25 25 26 27 27 27 26 26 26 27 27 27 27 28 29 31 33 35 36 37 38 39 39 40 40 40 40 40 40 41 42 42 43 44 45 46 47 48 49 49 50 51 51 52 53 54 54 54 53 53 52 53 53 53 54
55 53 51 50 49 47 46 44 43 41 40 39 38 37 36 34 33 33 32 32 31 31 30 29 28 27 26 25 25 24 24 24 25 26 27 26 26 26 26 26 26 27 27 27 28 30 32 34 36 37 38 39 39 40 40 40 40 40 41 41 42 43 44 44 45 46 47 48 49 49 50 51 51 52 53 54 54 54 53 52 52 53 53 54 54
55 53 52 50 49 48 47 45 43 42 41 39 38 37 36 35 34 33 32 31 31 30 29 28 28 27 25 24 23 23 22 23 24 25 26 26 26 25 26 26 26 26 27 27 28 29 31 33 35 36 38 39 39 40 40 40 40 40 41 42 43 44 44 45 45 46 47 48 49 49 50 50 51 53 54 54 54 53 53 53 53 53 53 54 54
53 53 52 51 50 48 47 46 44 42 41 39 38 37 37 36 35 33 32 31 30 29 28 27 27 26 25 23 21 21 21 22 22 24 25 25 25 25 25 25 25 26 26 27 27 28 30 32 34 36 37 39 39 39 40 40 41 41 41 42 43 44 45 45 46 46 47 48 49 49 49 50 51 53 54 54 54 54 53 53 53 53 54 54 55
52 52 51 51 50 49 48 47 45 43 41 39 38 37 36 35 35 34 32 31 30 29 28 27 26 25 24 23 21 20 20 20 21 22 23 24 24 24 25 25 25 25 26 26 27 28 29 31 33 35 37 38 39 39 40 40 41 41 42 42 43 44 45 45 46 46 47 48 48 49 49 50 51 52 53 54 54 54 54 53 53 54 54 55 55
Wind_Direction
284 284 284 284 284 284 284 284 284 284 284 283 283 283 282 282 281 281 280 279 279 278 277 276 275 274 273 272 271 270 269 268 267 266 265 264 263 262 261 260 260 259 259 259 259 259 259 259 259 259 260 260 260 260 260 260 260 260 259 258 257 256 255 254 253 252 252 251 251 251 250 250 251 252 253 252 252 251 251 250 249 249 248 248 248
285 285 285 285 285 285 285 285 284 284 284 284 283 283 283 282 282 281 281 280 280 280 279 278 278 277 276 274 273 272 270 269 267 266 265 264 263 263 262 261 260 259 259 259 259 259 259 259 259 259 259 260 260 260 261 261 261 261 261 260 259 257 256 255 254 253 252 252 252 252 251 251 251 252 252 253 253 252 252 251 251 250 249 249 248
286 286 286 286 285 285 285 285 285 284 284 284 284 284 284 283 283 283 282 282 281 281 281 280 279 278 277 276 274 272 271 269 268 266 265 264 263 263 262 261 260 260 259 259 259 259 259 259 259 259 259 260 260 260 260 261 262 262 262 261 260 259 258 257 255 254 253 253 252 252 252 252 251 251 252 252 253 253 252 252 251 250 250 249 249
286 286 286 285 285 285 285 285 285 285 285 285 285 285 285 284 284 284 283 283 282 282 281 280 280 279 277 276 275 273 272 270 269 267 265 264 263 263 262 262 261 260 260 259 259 259 259 259 259 259 259 259 259 259 260 260 261 261 262 261 261 260 260 258 257 256 254 254 253 253 252 252 252 251 251 252 252 252 252 252 251 251 250 250 249
286 286 286 286 286 286 286 286 286 286 286 286 286 286 285 285 284 284 284 284 284 283 282 281 280 279 278 277 276 275 274 272 270 269 267 265 264 263 262 262 262 261 260 260 259 259 259 259 258 258 258 258 258 259 259 260 260 261 261 261 260 260 260 259 258 257 256 255 254 254 253 253 252 252 251 251 251 251 251 251 251 250 249 249 249
287 287 287 287 287 287 287 287 287 287 287 286 286 286 286 285 285 285 285 286 285 284 284 283 282 281 281 280 279 277 275 273 272 270 269 267 266 264 263 262 262 262 261 260 259 259 259 259 258 258 258 258 258 258 258 259 259 259 259 259 259 259 259 259 259 258 257 256 255 254 254 253 253 252 252 251 251 250 250 250 250 249 248 248 247
288 288 288 288 288 288 287 287 287 287 287 287 287 287 287 287 287 288 287 287 286 285 284 284 284 283 282 281 279 277 276 274 273 272 270 269 267 266 264 263 262 261 261 260 260 259 259 258 258 258 258 257 257 258 258 258 258 259 258 258 258 258 258 258 258 257 257 256 256 255 254 254 253 253 252 251 251 250 249 249 248 248 248 247 247
288 288 288 288 288 288 288 288 288 288 288 288 288 289 289 289 289 288 287 286 286 285 285 285 284 283 281 279 278 277 277 276 275 273 272 270 268 267 265 264 263 262 261 260 260 259 259 258 258 258 258 257 257 257 258 258 258 258 258 258 258 257 257 257 257 256 256 256 256 255 255 254 253 253 252 251 251 250 249 248 247 247 247 247 246
288 288 288 288 288 289 289 289 289 289 289 290 290 290 290 289 288 287 287 286 286 285 285 284 282 281 280 279 279 278 278 277 276 274 272 271 269 268 266 265 263 262 262 261 260 259 258 258 258 257 257 257 257 257 257 257 258 257 257 257 257 257 256 256 256 256 255 255 255 254 254 253 253 252 252 251 250 249 248 247 247 246 246 246 246
289 289 289 290 290 290 290 290 290 290 290 290 290 289 288 288 287 286 286 286 286 285 284 283 282 281 281 281 281 281 279 278 277 275 273 272 270 269 267 266 264 263 262 261 260 259 258 258 257 257 256 256 256 256 256 257 257 257 257 257 256 256 256 255 255 255 254 254 254 253 253 253 252 252 251 251 250 249 248 247 246 246 245 245 244
290 290 290 290 290 290 290 290 290 290 290 290 289 288 287 287 287 287 287 287 286 286 285 284 284 284 284 283 283 282 281 279 277 276 274 273 271 269 268 267 266 264 263 262 261 260 259 258 257 256 256 255 255 255 255 256 256 256 256 256 256 255 255 254 254 254 253 253 253 252 252 252 251 251 251 250 249 248 247 246 246 245 245 244 243
290 290 290 290 290 290 290 290 290 290 290 289 288 288 288 288 288 288 288 288 287 286 286 286 286 285 285 284 283 282 280 279 277 276 275 273 272 270 269 268 266 265 263 262 261 260 259 258 257 256 256 255 255 255 255 255 256 256 255 255 255 254 254 254 253 253 252 252 251 251 251 251 251 250 250 249 249 248 247 246 246 245 244 242 242
291 291 291 291 291 291 291 291 290 290 289 289 289 289 289 289 289 289 288 288 288 288 287 287 286 285 284 283 282 281 280 278 277 276 275 273 272 271 269 268 266 265 263 262 261 260 259 258 257 256 256 255 255 255 255 255 255 255 254 254 254 253 253 252 252 252 251 250 250 250 250 250 250 250 249 249 248 248 247 246 245 244 242 241 240
291 291 291 291 291 291 291 290 290 290 290 290 290 290 290 290 289 289 289 288 288 288 287 287 286 285 284 283 282 281 279 278 277 276 275 274 272 271 270 268 266 264 263 262 260 259 259 258 257 257 256 256 255 254 254 254 254 254 253 253 253 252 252 252 251 250 250 249 249 249 249 249 249 249 249 248 248 247 245 244 243 242 241 240 239
291 291 291 291 291 291 291 291 291 291 291 291 291 290 290 289 289 289 289 288 288 287 287 286 286 285 284 283 282 280 279 278 277 276 274 273 272 271 270 268 266 264 263 261 260 259 258 258 257 257 256 256 256 255 254 254 253 253 252 252 251 251 251 251 250 249 249 249 248 248 248 248 248 248 248 247 247 246 244 243 242 241 240 239 238
292 292 292 292 292 292 292 292 292 291 291 291 290 290 290 290 289 289 289 289 288 288 287 286 285 284 283 282 281 280 278 277 276 275 274 273 271 271 269 267 266 264 262 260 259 258 258 257 257 257 256 256 256 255 254 253 253 252 251 251 250 250 250 250 249 248 248 248 248 248 248 248 248 248 247 246 245 244 242 241 241 240 239 238 237
293 293 292 292 292 292 292 292 291 291 291 291 290 290 290 290 290 290 289 289 289 288 287 286 285 283 282 281 280 279 278 277 276 275 274 273 271 270 269 267 265 264 262 260 258 257 257 257 257 257 256 256 256 255 254 253 252 251 251 250 249 249 249 249 248 248 247 247 247 247 247 247 247 246 246 245 243 242 240 240 239 238 238 237 236
293 293 293 292 292 292 292 292 291 291 291 291 290 290 290 290 290 290 290 289 289 288 287 286 285 283 282 281 280 280 279 278 276 275 274 273 271 270 268 267 265 263 262 260 258 257 256 256 256 257 256 255 255 254 254 253 252 251 250 249 248 248 248 248 247 247 247 246 246 246 246 246 245 245 244 242 241 239 239 238 238 237 237 236 235
294 293 293 293 293 292 292 292 292 291 291 291 291 290 290 291 291 291 290 289 288 287 287 286 285 284 283 282 281 281 280 278 276 275 274 272 271 270 269 267 265 263 262 260 259 258 257 256 256 256 256 255 253 253 252 251 250 249 248 247 247 247 246 246 246 246 245 245 244 245 245 244 243 242 241 240 238 238 237 237 237 236 236 235 234
294 294 294 294 293 293 293 292 292 292 292 292 291 291 291 291 291 291 291 290 289 288 287 286 285 284 284 283 283 281 280 278 276 275 273 272 271 270 269 267 265 264 262 260 259 258 256 256 256 255 255 254 253 252 250 249 247 247 246 246 245 245 245 245 245 245 244 243 243 244 244 243 241 240 239 237 236 236 236 235 235 235 234 234 233
295 295 295 295 294 294 294 294 294 294 293 293 292 292 292 292 291 291 291 290 289 288 287 286 285 284 283 283 282 281 279 277 276 274 273 272 271 270 268 267 265 264 262 260 259 258 257 256 255 255 254 253 252 250 249 247 246 245 245 245 245 245 246 245 244 244 243 242 242 242 241 240 239 238 237 235 234 234 234 233 233 233 233 233 233
297 296 296 296 296 296 296 295 295 295 294 294 293 293 293 293 292 292 291 290 289 287 286 285 284 284 283 283 282 280 278 276 276 275 273 272 271 269 267 266 264 263 261 260 258 258 257 255 255 254 253 252 250 249 247 246 244 244 245 245 245 245 245 245 243 243 243 242 241 240 239 237 236 235 235 233 233 233 232 232 233 233 233 232 232
298 297 297 297 296 296 296 296 296 295 295 294 294 293 293 293 293 292 291 290 288 287 286 284 284 283 283 282 281 279 278 277 276 274 273 272 270 268 266 265 263 261 260 259 257 256 256 255 254 253 252 251 248 247 245 244 243 243 244 245 245 244 244 243 242 242 241 241 240 238 237 235 234 234 233 232 232 231 231 231 232 232 231 230 230
299 298 298 298 297 297 297 297 296 296 295 295 294 294 294 293 293 292 291 289 288 286 285 284 284 283 283 282 281 279 278 277 275 274 273 272 270 268 265 264 262 260 259 258 257 255 254 254 253 252 250 249 247 245 244 243 242 242 243 244 244 242 241 241 240 240 239 239 238 236 235 233 233 233 232 231 231 231 230 230 230 230 230 229 229
300 300 299 299 299 299 299 298 298 297 296 296 295 294 294 294 293 293 291 289 287 286 285 284 284 284 283 282 281 279 278 276 275 273 272 271 269 267 264 262 261 259 258 257 256 254 253 252 251 250 248 247 245 244 243 242 242 241 242 243 242 241 239 238 238 237 237 236 235 234 233 232 232 232 232 231 230 230 229 228 228 228 228 228 229
302 302 301 301 301 300 300 299 299 298 297 296 295 294 294 294 294 294 292 290 288 286 285 285 285 285 284 282 280 279 277 276 274 273 272 270 268 266 263 261 259 258 257 257 256 254 252 250 249 247 246 245 244 243 242 242 242 242 242 242 241 239 237 237 236 236 235 235 234 233 233 232 232 232 231 230 229 228 228 227 227 227 227 227 228
304 303 303 303 302 302 301 300 300 299 298 297 296 295 295 295 295 294 293 291 289 287 287 287 287 286 284 282 280 278 277 276 274 273 271 270 267 265 263 261 260 259 258 258 257 255 253 250 248 246 245 244 243 243 242 242 242 242 241 241 240 238 237 236 235 235 234 234 233 232 232 232 232 231 229 228 228 227 227 227 226 226 226 226 226
305 305 304 304 303 302 302 301 300 299 299 298 297 297 297 297 297 295 293 291 290 288 287 287 286 285 283 282 280 279 278 276 274 272 271 269 267 265 264 262 261 260 259 258 257 255 253 250 248 246 245 244 243 243 243 243 242 242 241 240 239 238 236 236 235 234 233 233 232 232 231 231 229 228 227 227 226 227 226 226 225 225 225 225 225
307 306 305 304 304 303 302 302 301 300 300 299 298 298 298 298 298 297 294 292 290 288 288 288 287 285 282 280 279 279 278 276 275 273 271 270 268 266 264 262 260 258 257 255 253 252 250 249 247 246 245 245 244 244 244 243 242 241 241 240 239 238 236 235 234 234 233 232 232 231 230 229 227 226 226 225 226 226 226 224 223 223 224 224 224
308 308 307 306 306 305 304 303 303 302 301 300 300 299 298 298 297 297 296 294 291 288 288 289 288 286 283 280 278 278 277 275 274 273 271 270 268 266 264 261 259 257 255 253 251 248 247 246 245 245 244 243 243 243 242 242 241 240 239 238 237 236 235 234 233 233 232 232 231 230 228 227 226 225 225 225 225 225 224 223 222 222 222 223 223
311 310 309 309 308 307 307 305 304 303 302 301 301 301 300 299 298 296 295 294 292 290 289 289 288 287 285 282 279 278 277 275 273 272 271 269 268 266 264 261 259 257 254 252 249 247 245 244 243 242 242 242 242 242 241 240 239 237 236 235 234 233 232 232 231 231 230 230 229 228 227 226 225 225 225 224 224 224 223 222 221 221 221 222 222
314 313 312 311 310 309 308 307 306 305 304 303 302 302 301 301 300 298 294 292 291 291 290 290 288 286 285 284 281 278 276 276 274 271 270 268 267 265 263 260 258 256 253 251 248 246 244 243 242 240 240 240 240 239 239 238 237 236 234 233 231 231 231 230 230 229 228 227 226 226 225 225 225 224 224 224 223 223 222 221 220 220 220 220 220
316 315 314 313 312 312 311 310 308 307 305 304 303 303 302 301 301 300 297 292 288 289 291 291 289 285 284 284 283 280 276 275 274 272 270 268 266 265 262 260 257 255 252 249 246 244 243 242 241 239 238 237 237 237 237 237 236 235 233 232 231 230 229 228 227 227 226 225 224 223 223 223 223 222 222 221 221 221 221 220 220 219 219 219 219
319 318 317 315 314 314 313 312 310 309 307 306 305 304 303 302 301 300 299 297 290 287 288 291 290 287 283 281 282 282 279 275 274 272 270 268 266 264 261 259 257 254 251 248 245 243 242 240 239 238 236 235 235 236 236 236 234 233 232 231 230 230 229 227 226 225 224 222 222 221 221 220 220 220 219 219 219 219 219 219 219 219 218 218 219
322 321 319 318 316 315 315 314 312 310 309 307 306 305 304 303 302 300 299 299 296 290 287 288 290 290 286 282 281 280 279 276 273 272 270 267 265 263 260 258 256 253 250 247 244 242 241 239 237 236 235 234 234 234 234 234 233 231 230 230 230 230 229 227 225 224 223 221 220 219 218 218 217 217 217 217 217 218 218 218 218 218 218 218 218
325 324 322 321 319 318 317 316 314 312 311 309 308 306 306 304 303 301 299 298 297 294 290 287 287 287 287 285 282 280 278 276 273 271 269 266 263 261 259 257 255 253 249 246 244 242 240 238 236 235 233 232 232 232 233 233 232 230 228 228 229 229 228 227 226 224 222 221 219 218 217 216 215 215 215 215 216 216 217 217 217 217 216 216 217
328 327 325 323 322 321 319 317 316 314 312 311 309 308 307 306 304 302 300 299 297 296 293 289 286 285 285 284 282 279 277 275 273 270 268 265 261 259 258 256 254 252 249 246 243 241 239 238 236 234 233 232 232 231 231 231 231 229 227 226 226 227 226 225 225 223 222 220 218 216 215 214 214 214 214 215 216 216 216 217 217 217 216 216 216
330 329 327 325 324 322 321 319 317 316 314 312 310 310 308 307 306 304 302 300 298 296 294 291 288 286 285 284 283 279 276 274 272 269 266 263 260 257 256 255 253 251 248 245 243 240 239 237 236 235 233 232 232 231 230 230 229 228 226 225 225 224 224 223 222 222 221 219 217 214 213 213 213 214 215 216 216 216 216 217 217 217 216 216 216
331 330 329 327 326 324 323 321 319 317 316 313 312 311 310 308 307 305 303 301 299 298 296 293 290 287 285 284 283 280 276 273 271 268 265 262 259 256 254 253 252 250 247 244 242 240 238 236 235 234 233 232 231 231 230 230 229 228 227 226 225 224 222 221 220 219 218 217 214 212 211 212 213 214 215 216 216 216 216 216 216 216 215 215 215
332 331 331 329 328 326 324 323 321 319 317 315 313 312 311 309 308 306 304 302 300 298 297 295 292 289 286 284 282 280 277 273 270 267 265 261 258 255 253 251 251 249 247 244 242 239 238 236 234 233 232 231 231 230 229 229 229 228 227 226 225 224 223 221 219 217 216 214 213 211 211 211 213 214 215 215 216 215 215 216 216 216 215 214 215
333 333 332 331 330 328 326 325 323 321 319 317 315 314 312 311 309 308 306 304 302 300 298 296 294 291 288 286 283 280 278 274 270 267 264 260 257 254 252 250 249 248 246 243 241 239 237 236 234 233 231 231 230 229 228 227 227 226 225 225 224 223 223 221 219 216 214 213 212 212 211 212 213 214 215 215 215 215 215 215 215 215 215 214 214
334 334 334 333 332 331 329 327 325 323 321 319 317 315 314 313 311 310 308 305 304 301 299 297 295 292 290 288 285 281 278 275 272 268 264 260 256 254 251 249 248 246 245 242 240 238 237 235 234 232 231 230 229 228 227 227 226 225 224 223 223 222 220 218 217 215 213 212 212 212 213 213 214 215 215 216 215 215 215 215 214 214 214 213 213
335 335 335 335 335 334 332 330 328 326 324 322 319 317 316 315 313 311 310 308 306 304 301 299 297 295 292 289 287 283 279 275 272 269 265 261 256 253 250 248 247 245 244 241 239 237 236 234 233 231 230 229 229 228 227 226 225 224 223 222 221 220 218 216 214 212 212 212 212 213 214 215 216 216 217 217 216 216 215 214 214 214 213 212 212
336 336 336 337 336 336 334 333 331 328 326 324 322 320 318 316 314 312 311 310 308 306 304 301 299 297 295 292 289 285 281 276 273 269 266 262 257 253 250 247 246 244 243 241 238 237 235 233 231 230 229 228 228 227 227 225 224 223 221 220 219 219 218 216 214 212 211 211 212 213 214 215 216 217 217 217 216 216 215 214 214 213 213 212 211
337 337 337 338 338 338 337 335 333 331 329 327 325 323 321 319 317 314 313 311 310 308 306 304 301 299 297 295 292 288 284 279 274 271 267 263 258 254 250 247 245 243 241 239 238 236 234 233 231 229 227 227 227 226 226 225 224 223 221 219 217 217 217 216 214 213 212 212 213 214 215 216 217 217 217 217 217 216 215 215 214 213 212 211 210
338 338 338 339 339 339 338 337 336 334 332 330 328 326 324 321 319 317 315 313 312 310 308 306 304 302 299 297 295 291 287 282 277 272 269 264 259 255 251 248 245 242 240 238 236 235 234 232 230 228 227 226 225 225 225 224 223 222 221 218 216 215 215 215 214 213 213 212 213 214 215 216 217 217 218 218 217 217 216 215 214 213 212 211 210
339 339 340 340 340 340 339 339 338 336 334 332 330 329 327 325 322 320 317 315 314 312 310 308 307 305 302 300 297 293 289 284 279 275 271 266 261 256 252 248 246 243 240 237 235 234 233 232 230 228 226 225 224 224 223 223 222 221 220 218 215 213 213 214 214 213 213 213 213 214 215 216 217 218 218 218 218 217 216 214 213 212 211 211 210
340 340 340 340 340 341 340 340 339 338 336 335 333 331 329 328 325 323 320 318 316 314 313 311 309 307 305 302 299 294 290 285 280 276 272 268 263 257 252 248 245 243 240 237 234 233 232 231 229 228 225 224 223 223 223 222 221 220 219 218 215 212 211 212 213 213 213 213 214 215 215 216 217 217 218 218 218 217 215 213 212 211 211 210 210
340 340 340 341 341 341 341 341 340 339 338 337 335 333 331 330 328 326 323 321 319 317 315 313 311 309 307 305 301 296 290 285 280 277 274 270 265 259 254 250 245 242 240 237 234 233 232 230 229 227 226 224 223 222 222 221 220 219 218 218 215 213 211 211 211 212 213 213 214 215 216 216 217 217 218 218 218 217 215 213 211 210 210 210 210
340 340 340 341 341 342 342 341 341 341 340 338 337 335 333 331 330 328 326 324 322 319 317 315 313 310 308 305 302 297 291 284 280 277 275 272 267 262 256 251 246 242 239 236 234 232 231 230 229 227 226 224 223 221 220 220 219 218 217 217 216 214 211 210 210 211 212 213 214 215 216 216 217 217 218 218 218 216 215 213 211 210 210 210 210
341 340 341 341 341 342 342 342 342 342 341 340 339 337 335 333 331 330 328 327 325 322 320 318 315 312 309 306 302 297 291 285 280 277 275 272 269 264 258 253 248 243 239 235 233 231 230 229 228 227 226 225 223 221 220 219 219 218 217 216 215 214 212 211 210 210 211 212 214 215 216 216 217 217 218 218 217 216 215 213 211 210 210 210 210